GW4109 Weather Reports


Display with metric or nautical units.
time (UTC)temp
F
wind
direction
speed
MPH
gust
MPH
rain 1hr
in
rain 24hr
in
rain mn
in
humidity
%
barometer
mb
20260504000537 85 271 10.0 19.0 0.00 0.00 0.00 21 1010.2
20260504000034 85 249 16.0 22.0 0.00 0.00 0.00 21 1010.2
20260503235532 86 242 14.0 17.0 0.00 0.00 0.00 20 1010.0
20260503235029 87 243 22.0 22.0 0.00 0.00 0.00 20 1010.0
20260503234526 87 250 13.0 20.0 0.00 0.00 0.00 20 1010.2
20260503234025 87 238 16.0 29.0 0.00 0.00 0.00 20 1009.8
20260503233520 86 247 17.0 22.0 0.00 0.00 0.00 22 1009.9
20260503233017 86 245 9.0 26.0 0.00 0.00 0.00 22 1009.9
20260503232514 85 246 15.0 24.0 0.00 0.00 0.00 23 1010.0
20260503232011 86 234 15.0 23.0 0.00 0.00 0.00 23 1010.2
20260503231509 87 255 16.0 20.0 0.00 0.00 0.00 23 1010.3
20260503231006 88 213 9.0 23.0 0.00 0.00 0.00 21 1010.3
20260503230502 88 236 9.0 13.0 0.00 0.00 0.00 21 1010.3
20260503230000 87 247 10.0 26.0 0.00 0.00 0.00 21 1010.2
20260503225456 88 232 11.0 18.0 0.00 0.00 0.00 22 1010.1
20260503224952 87 235 10.0 21.0 0.00 0.00 0.00 22 1010.3
20260503224449 87 235 9.0 19.0 0.00 0.00 0.00 23 1010.2
20260503223947 87 255 13.0 19.0 0.00 0.00 0.00 23 1010.2
20260503223445 88 244 18.0 24.0 0.00 0.00 0.00 23 1009.9
20260503222940 87 242 19.0 24.0 0.00 0.00 0.00 22 1010.2
20260503222439 89 234 18.0 22.0 0.00 0.00 0.00 22 1010.1
20260503221936 87 229 9.0 26.0 0.00 0.00 0.00 22 1009.8
20260503221434 87 231 23.0 28.0 0.00 0.00 0.00 22 1010.0
20260503220931 87 242 21.0 29.0 0.00 0.00 0.00 23 1010.1
20260503220427 88 230 26.0 32.0 0.00 0.00 0.00 22 1010.2
20260503215924 89 240 12.0 19.0 0.00 0.00 0.00 21 1009.9
20260503215421 87 246 16.0 31.0 0.00 0.00 0.00 21 1010.1
20260503214919 89 237 14.0 25.0 0.00 0.00 0.00 22 1010.5
20260503214416 89 234 15.0 25.0 0.00 0.00 0.00 20 1010.5
20260503213914 88 227 6.0 27.0 0.00 0.00 0.00 20 1010.5
20260503213411 89 253 17.0 29.0 0.00 0.00 0.00 20 1010.3
20260503212908 90 227 6.0 20.0 0.00 0.00 0.00 19 1010.2
20260503212406 90 230 11.0 26.0 0.00 0.00 0.00 19 1010.4
20260503211902 89 231 16.0 29.0 0.00 0.00 0.00 18 1010.3
20260503211359 90 224 15.0 26.0 0.00 0.00 0.00 18 1010.4
20260503210854 90 221 11.0 27.0 0.00 0.00 0.00 19 1010.5
20260503210352 89 240 24.0 33.0 0.00 0.00 0.00 19 1010.5
20260503205847 90 226 13.0 24.0 0.00 0.00 0.00 19 1010.4
20260503205344 89 228 13.0 27.0 0.00 0.00 0.00 19 1010.4
20260503204840 89 230 20.0 26.0 0.00 0.00 0.00 20 1010.3
20260503204337 88 229 27.0 30.0 0.00 0.00 0.00 21 1010.5
20260503203835 88 253 15.0 29.0 0.00 0.00 0.00 21 1010.4
20260503203332 88 242 22.0 35.0 0.00 0.00 0.00 22 1010.5
20260503202829 88 240 21.0 30.0 0.00 0.00 0.00 22 1010.1
20260503202327 90 246 15.0 26.0 0.00 0.00 0.00 20 1010.4
20260503201825 92 253 16.0 24.0 0.00 0.00 0.00 20 1010.6
20260503201321 91 232 16.0 19.0 0.00 0.00 0.00 19 1010.5
20260503200819 90 228 16.0 25.0 0.00 0.00 0.00 20 1010.5
20260503200315 90 264 17.0 24.0 0.00 0.00 0.00 19 1010.6
20260503195812 92 251 10.0 17.0 0.00 0.00 0.00 17 1010.7
20260503195309 91 245 11.0 18.0 0.00 0.00 0.00 18 1010.8
20260503194806 92 258 12.0 19.0 0.00 0.00 0.00 17 1010.8
20260503194302 91 244 11.0 18.0 0.00 0.00 0.00 18 1011.1
20260503193758 92 254 15.0 22.0 0.00 0.00 0.00 18 1010.9
20260503193254 91 232 13.0 21.0 0.00 0.00 0.00 19 1011.0
20260503192750 92 256 11.0 18.0 0.00 0.00 0.00 18 1010.9
20260503192245 91 263 6.0 15.0 0.00 0.00 0.00 18 1011.1
20260503191743 92 231 10.0 18.0 0.00 0.00 0.00 17 1011.2
20260503191240 92 265 11.0 17.0 0.00 0.00 0.00 18 1011.2
20260503190736 91 234 13.0 19.0 0.00 0.00 0.00 18 1011.2
20260503190233 91 260 6.0 10.0 0.00 0.00 0.00 18 1011.4
20260503185731 91 259 9.0 15.0 0.00 0.00 0.00 18 1011.5
20260503185226 92 257 13.0 19.0 0.00 0.00 0.00 18 1011.6
20260503184721 91 244 13.0 21.0 0.00 0.00 0.00 18 1011.7
20260503184217 92 190 4.0 15.0 0.00 0.00 0.00 18 1011.7
20260503183714 91 236 13.0 18.0 0.00 0.00 0.00 18 1011.8
20260503183211 90 245 9.0 19.0 0.00 0.00 0.00 18 1011.7
20260503182709 91 246 9.0 17.0 0.00 0.00 0.00 17 1012.0
20260503182208 91 240 10.0 22.0 0.00 0.00 0.00 18 1012.0
20260503181703 91 248 9.0 22.0 0.00 0.00 0.00 17 1012.1
20260503181200 91 245 12.0 15.0 0.00 0.00 0.00 17 1012.1
20260503180657 91 252 8.0 13.0 0.00 0.00 0.00 18 1012.1
20260503180156 91 235 10.0 15.0 0.00 0.00 0.00 18 1012.4
20260503175652 91 243 5.0 5.0 0.00 0.00 0.00 16 1012.3
20260503175150 91 236 2.0 8.0 0.00 0.00 0.00 17 1012.3
20260503174646 90 233 10.0 13.0 0.00 0.00 0.00 16 1012.5
20260503174143 91 220 2.0 16.0 0.00 0.00 0.00 17 1012.6
20260503173638 90 200 2.0 15.0 0.00 0.00 0.00 17 1012.5
20260503173130 91 264 6.0 12.0 0.00 0.00 0.00 16 1012.3
20260503172626 89 257 12.0 15.0 0.00 0.00 0.00 18 1012.5
20260503172123 89 253 4.0 7.0 0.00 0.00 0.00 17 1012.5
20260503171620 91 233 10.0 15.0 0.00 0.00 0.00 16 1012.7
20260503171117 89 236 9.0 18.0 0.00 0.00 0.00 16 1012.4
20260503170614 90 207 5.0 8.0 0.00 0.00 0.00 16 1012.6
20260503170110 90 231 8.0 12.0 0.00 0.00 0.00 16 1012.5
20260503151006 84 45 2.0 2.0 0.00 0.00 0.00 18 1012.8
20260503150502 84 39 2.0 4.0 0.00 0.00 0.00 18 1012.9
20260503131349 69 17 2.0 3.0 0.00 0.00 0.00 24 1011.5
20260503130847 69 54 0.0 2.0 0.00 0.00 0.00 24 1011.5
20260503130344 68 271 2.0 3.0 0.00 0.00 0.00 24 1011.4
20260503110733 75 188 0.0 3.0 0.00 0.00 0.00 20 1011.4
20260503110230 74 191 0.0 3.0 0.00 0.00 0.00 21 1011.3
20260503100155 73 222 2.0 2.0 0.00 0.00 0.00 21 1011.4
20260503090114 77 76 0.0 1.0 0.00 0.00 0.00 19 1012.1
20260503081550 75 121 0.0 1.0 0.00 0.00 0.00 21 1012.8
20260503081048 75 236 0.0 2.0 0.00 0.00 0.00 21 1013.0
20260503080544 76 18 0.0 2.0 0.00 0.00 0.00 21 1012.8
20260503072517 78 10 2.0 2.0 0.00 0.00 0.00 22 1013.0
20260503072014 78 119 0.0 2.0 0.00 0.00 0.00 21 1013.2
20260503071511 77 125 0.0 1.0 0.00 0.00 0.00 22 1013.0
20260503071008 78 135 0.0 1.0 0.00 0.00 0.00 22 1013.2
20260503070504 77 125 0.0 2.0 0.00 0.00 0.00 23 1013.3
20260503054922 79 174 0.0 0.0 0.00 0.00 0.00 22 1013.4
20260503054419 79 89 0.0 2.0 0.00 0.00 0.00 22 1013.4
20260503053917 78 65 2.0 2.0 0.00 0.00 0.00 23 1013.5
20260503053414 79 323 1.0 2.0 0.00 0.00 0.00 22 1013.2
20260503052910 79 72 2.0 3.0 0.00 0.00 0.00 22 1013.4
20260503052408 79 284 0.0 0.0 0.00 0.00 0.00 22 1013.4
20260503051904 80 71 1.0 2.0 0.00 0.00 0.00 21 1013.2
20260503051400 80 315 0.0 3.0 0.00 0.00 0.00 22 1013.3
20260503050857 80 27 0.0 3.0 0.00 0.00 0.00 21 1013.3
20260503050353 80 264 1.0 2.0 0.00 0.00 0.00 22 1013.2
20260503045851 81 2 4.0 4.0 0.00 0.00 0.00 22 1013.2
20260503045349 82 294 0.0 2.0 0.00 0.00 0.00 21 1013.2
20260503044845 82 98 4.0 5.0 0.00 0.00 0.00 21 1013.1
20260503044342 83 80 3.0 4.0 0.00 0.00 0.00 19 1013.0
20260503043839 83 89 0.0 2.0 0.00 0.00 0.00 19 1012.9
20260503043336 83 119 2.0 4.0 0.00 0.00 0.00 19 1012.8
20260503042832 84 95 2.0 3.0 0.00 0.00 0.00 19 1012.9
20260503042329 84 138 1.0 2.0 0.00 0.00 0.00 17 1012.8
20260503041825 85 286 0.0 4.0 0.00 0.00 0.00 16 1012.4
20260503041322 85 263 2.0 4.0 0.00 0.00 0.00 16 1012.6
20260503040820 86 250 2.0 3.0 0.00 0.00 0.00 16 1012.8
20260503040317 86 260 5.0 8.0 0.00 0.00 0.00 16 1012.7
20260503035814 85 265 5.0 7.0 0.00 0.00 0.00 17 1012.5
20260503035312 86 250 6.0 7.0 0.00 0.00 0.00 17 1012.6
20260503034809 85 247 5.0 6.0 0.00 0.00 0.00 17 1012.6
20260503034305 86 245 4.0 9.0 0.00 0.00 0.00 17 1012.5
20260503033803 85 274 3.0 3.0 0.00 0.00 0.00 18 1012.2
20260503033300 85 108 0.0 2.0 0.00 0.00 0.00 19 1012.3
20260503032758 86 78 0.0 2.0 0.00 0.00 0.00 20 1012.2
20260503032257 86 289 4.0 5.0 0.00 0.00 0.00 19 1012.2
20260503031753 86 245 5.0 7.0 0.00 0.00 0.00 19 1012.2
20260503031252 86 258 4.0 9.0 0.00 0.00 0.00 20 1012.1
20260503030747 86 252 8.0 10.0 0.00 0.00 0.00 20 1011.8
20260503030244 87 258 7.0 11.0 0.00 0.00 0.00 19 1011.8
20260503025741 87 233 6.0 13.0 0.00 0.00 0.00 19 1012.0
20260503025239 87 233 8.0 13.0 0.00 0.00 0.00 20 1011.8
20260503024735 87 240 8.0 10.0 0.00 0.00 0.00 20 1011.8
20260503024232 87 261 5.0 9.0 0.00 0.00 0.00 20 1011.4
20260503023729 88 257 5.0 12.0 0.00 0.00 0.00 21 1011.6
20260503023226 88 313 3.0 9.0 0.00 0.00 0.00 21 1011.4
20260503022722 88 256 5.0 12.0 0.00 0.00 0.00 20 1011.3
20260503022222 88 245 5.0 6.0 0.00 0.00 0.00 20 1011.3
20260503021719 89 196 0.0 2.0 0.00 0.00 0.00 17 1011.4
20260503021215 89 330 1.0 2.0 0.00 0.00 0.00 14 1011.4
20260503020713 89 317 1.0 2.0 0.00 0.00 0.00 15 1011.4
20260503020210 90 48 0.0 2.0 0.00 0.00 0.00 14 1011.2
20260503015707 90 68 0.0 2.0 0.00 0.00 0.00 14 1011.3
20260503015204 90 83 1.0 2.0 0.00 0.00 0.00 14 1011.2
20260503014700 91 94 2.0 3.0 0.00 0.00 0.00 13 1011.1
20260503014158 91 85 2.0 3.0 0.00 0.00 0.00 13 1011.2
20260503013655 91 109 2.0 5.0 0.00 0.00 0.00 13 1011.1
20260503013153 91 99 2.0 3.0 0.00 0.00 0.00 13 1010.9
20260503012649 91 94 2.0 4.0 0.00 0.00 0.00 13 1011.0
20260503012146 92 101 2.0 6.0 0.00 0.00 0.00 13 1011.1
20260503011643 93 97 2.0 4.0 0.00 0.00 0.00 13 1011.2
20260503011140 94 108 4.0 9.0 0.00 0.00 0.00 12 1011.0
20260503010636 94 85 2.0 5.0 0.00 0.00 0.00 12 1011.1
20260503010134 93 94 3.0 6.0 0.00 0.00 0.00 12 1011.1
20260503005631 94 107 3.0 8.0 0.00 0.00 0.00 12 1011.0
20260503005128 94 86 4.0 9.0 0.00 0.00 0.00 12 1011.0
20260503004624 94 93 3.0 6.0 0.00 0.00 0.00 12 1011.1
20260503004123 95 96 5.0 5.0 0.00 0.00 0.00 12 1011.0
20260503003619 95 80 3.0 3.0 0.00 0.00 0.00 12 1011.0
20260503003116 94 116 5.0 8.0 0.00 0.00 0.00 12 1011.2
20260503002613 94 104 4.0 6.0 0.00 0.00 0.00 12 1011.2
20260503002110 95 113 4.0 7.0 0.00 0.00 0.00 12 1011.1
20260503001606 94 106 6.0 13.0 0.00 0.00 0.00 12 1011.2
20260503001103 95 82 2.0 6.0 0.00 0.00 0.00 12 1011.0